#timestamp,LO_Frequency,Hit,StdDev 
1615975215.3,286046998.2,N
1615975235.1,286046999.4,N
1615975255.9,286046998.1,N
1615975275.7,286046998.7,N
1615975295.6,286046998.5,N
1615975315.4,286046999.2,N
1615975335.2,286046998.8,N
1615975355.1,286046996.6,Y
1615975356.0,286046996.6,P
1615975375.8,286047001.2,N
1615975395.6,286046999.1,N
1615975415.5,286046999.3,N
1615975435.3,286046998.4,N
1615975455.2,286046998.8,N
1615975475.9,286047000.3,N
1615975495.7,286047002.1,N
1615975515.6,286047002.5,N
1615975535.4,286047001.6,N
1615975555.2,286047004.2,N
1615975575.1,286047003.2,N
1615975576.0,286047003.2,N
1615975595.8,286047005.6,N
1615975615.7,286047006.0,N
1615975635.5,286047003.2,N
1615975655.3,286047005.9,N
1615975675.2,286047005.2,N
1615975695.9,286047004.6,N
1615975715.7,286047004.5,N
1615975735.6,286047004.7,N
1615975755.4,286047007.1,N
1615975775.2,286047007.3,N
1615975795.1,286047007.0,N
1615975796.0,286047007.0,N
1615975815.8,286047008.7,N
1615975835.7,286047008.9,N
1615975855.5,286047008.3,N
1615975875.3,286047008.5,N
1615975895.2,286047009.0,N
1615975915.0,286047006.4,N
1615975915.9,286047006.4,N
1615975935.8,286047008.2,N
1615975955.6,286047009.1,N
1615975975.4,286047008.7,N
1615975995.3,286047008.1,N
1615976015.1,286047010.8,Y
1615976035.8,286047004.2,P
1615976055.7,286047003.8,P
1615976075.5,286047003.1,P
1615976095.4,286047005.8,Y
1615976115.2,286047000.9,P
1615976135.0,286047000.5,N
1615976135.9,286047000.5,N
1615976155.8,286047000.4,N
1615976175.6,286047000.8,N
1615976195.5,286046998.7,N
1615976245.3,286046996.8,E
1615976255.2,286046998.4,N
1615976275.1,286046999.9,P
1615976276.0,286046999.9,N
1615976295.8,286047000.4,N
1615976315.7,286047000.3,N
1615976335.5,286047002.7,Y
1615976355.3,286047001.5,P
1615976375.2,286047002.4,N
1615976395.0,286047001.6,N
1615976395.9,286047001.6,N
1615976415.8,286047004.1,Y
1615976435.6,286046999.8,P
1615976455.4,286047002.1,N
1615976475.3,286047000.4,N
1615976495.1,286047001.8,N
1615976515.8,286047002.5,N
1615976535.7,286047002.6,N
1615976555.5,286047000.9,N
1615976575.4,286047000.4,N
1615976595.2,286047001.1,N
1615976615.0,286047000.7,N
1615976615.9,286047000.7,N
1615976635.8,286047000.9,N
1615976655.6,286046999.9,N
1615976675.4,286047002.6,N
1615976695.3,286047002.8,Y
1615976715.1,286047000.3,P
1615976735.9,286046998.1,P
1615976755.7,286047001.2,N
1615976775.5,286046999.3,N
1615976795.4,286046999.4,N
1615976815.2,286046999.2,N
1615976835.0,286046999.3,N
1615976836.0,286046999.3,N
1615976855.8,286046999.2,N
1615976875.6,286046998.9,N
1615976895.5,286047000.8,N
1615976915.3,286046998.5,N
1615976935.1,286047001.1,N
1615976955.9,286047001.0,N
1615976975.7,286047001.1,N
1615976995.5,286046998.6,N
1615977015.4,286046999.3,N
1615977035.2,286046999.3,N
1615977055.1,286046999.1,N
1615977056.0,286046999.1,N
1615977075.8,286046999.6,N
1615977095.6,286046997.2,N
1615977115.5,286046997.6,N
1615977135.3,286046995.0,Y
1615977155.1,286046997.2,P
1615977175.9,286046999.2,N
1615977195.7,286046997.1,N
1615977215.6,286046995.6,Y
1615977235.4,286046997.2,P
1615977255.2,286046994.9,P
1615977275.1,286046997.2,N
1615977276.0,286046997.2,N
1615977295.8,286046995.4,Y
1615977315.6,286046998.3,P
1615977335.5,286046998.9,N
1615977355.3,286047001.2,N
1615977375.2,286046999.0,N
1615977395.9,286046996.8,N
1615977415.7,286046999.1,N
1615977435.6,286046997.3,N
1615977455.4,286046996.6,N
1615977475.2,286046996.6,N
1615977495.1,286046999.0,N
1615977496.0,286046999.0,N
1615977515.8,286046996.9,N
1615977535.7,286046996.9,N
1615977555.5,286046995.8,Y
1615977575.3,286046997.7,P
1615977595.2,286046997.8,P
1615977615.0,286046997.0,P
1615977615.9,286046997.0,Y
1615977635.8,286046998.6,P
1615977655.6,286047000.6,N
1615977675.4,286047000.5,N
1615977695.3,286047002.3,N
1615977715.1,286047001.0,N
1615977735.8,286047000.0,N
1615977755.7,286046999.9,N
1615977775.5,286047000.0,N
1615977795.4,286047000.6,N
1615977815.2,286046998.1,N
1615977835.0,286047000.5,N
1615977835.9,286047000.5,N
1615977855.8,286046998.5,N
1615977875.6,286046998.3,N
1615977895.4,286047000.7,N
1615977915.3,286046998.4,N
1615977935.1,286046998.6,N
1615977955.8,286046998.9,N
1615977975.7,286046998.9,N
1615977995.5,286046998.6,N
1615978015.4,286046998.4,N
1615978035.2,286046996.6,N
1615978055.0,286046999.4,N
1615978055.9,286046999.4,N
1615978075.8,286046998.9,N
1615978095.6,286046998.1,N
1615978115.5,286046998.6,N
1615978135.3,286047000.6,N
1615978155.1,286046998.9,N
1615978175.9,286046998.1,N
1615978195.7,286047000.9,N
1615978215.5,286046998.7,N
1615978235.4,286046998.3,N
1615978255.2,286046999.1,N
1615978275.0,286046996.6,Y
1615978276.0,286046996.6,P
1615978295.8,286046999.1,N
1615978315.6,286046999.6,N
1615978335.5,286046999.4,N
1615978355.3,286046996.5,Y
1615978375.1,286047000.5,P
1615978395.9,286046998.2,N
1615978415.7,286047000.8,N
1615978435.6,286047000.9,N
1615978455.4,286047000.2,N
1615978475.2,286047002.8,N
1615978495.1,286046999.7,N
1615978496.0,286046999.7,N
1615978515.8,286046998.1,N
1615978535.6,286047000.6,N
1615978555.5,286047001.0,N
1615978575.3,286047000.3,N
1615978595.1,286046999.9,N
1615978615.9,286047000.8,N
1615978635.7,286047000.2,N
1615978655.6,286047000.7,N
1615978675.4,286047000.8,N
1615978695.2,286046998.2,N
1615978715.1,286047000.7,N
1615978716.0,286047000.7,N
1615978735.8,286046998.5,N
1615978755.6,286047000.0,N
1615978775.5,286047001.1,N
1615978795.3,286047001.2,N
